Regional Weather Roundup
Issued by NWS

Home | Current Version | Previous Version | Graphics & Text | Print | Product List | Glossary Off
Versions: 1 2 3 4 5 6 7 8 9 10 11 12 13 14 15 16 17 18 19 20 21 22 23 24 25 26 27 28 29 30 31 32 33 34 35 36 37 38 39 40 41 42 43 44 45 46 47 48 49 50

000
ASUS43 KMKX 060321
RWRWI

WISCONSIN REGIONAL WEATHER ROUNDUP
NATIONAL WEATHER SERVICE MILWAUKEE/SULLIVAN WI
1000 PM CDT SUN JUL 05 2015

NOTE: "FAIR" INDICATES FEW OR NO CLOUDS BELOW 12,000 FEET WITH NO
SIGNIFICANT WEATHER AND/OR OBSTRUCTIONS TO VISIBILITY.

WIZ001-002-006>008-014>016-023>028-060400-
NORTHWEST WISCONSIN

CITY           SKY/WX    TMP DP  RH WIND       PRES   REMARKS
SUPERIOR ARPT  CLOUDY    72  71  94 SW9       29.77R
ASHLAND        PTCLDY    77  66  68 S12G18    29.81R
HAYWARD        PTCLDY    76  66  71 S15G21    29.84R
SIREN          MOCLDY    78  67  68 S9        29.83R
CUMBERLAND     CLEAR     72  64  78 S10       29.85R
RICE LAKE      CLEAR     74  65  74 SE7       29.86R
CHETEK         CLEAR     74  67  78 SE7       29.84F
LADYSMITH      PTCLDY    74  64  73 S9        29.88F
EAU CLAIRE     CLEAR     76  65  68 S9        29.84F
MENOMONIE      CLEAR     76  65  70 S13       29.84S
NEW RICHMOND   CLEAR     74  66  75 S8        29.83R
OSCEOLA        CLEAR     78  66  67 S10       29.84R HX  80
$$

WIZ003>005-009-010-017-018-060400-
NORTH CENTRAL WISCONSIN

CITY           SKY/WX    TMP DP  RH WIND       PRES   REMARKS
MANITOWISH WTR PTCLDY    71  64  76 S9        29.88F
ARBOR VITAE    PTCLDY    72  63  72 S8        29.90R
WOODRUFF       PTCLDY    72  63  72 S8        29.90R
RHINELANDER    PTCLDY    73  61  65 S8G18     29.91F
EAGLE RIVER    PTCLDY    72  59  64 S6        29.90F
LAND O LAKES   PTCLDY    73  61  66 S7        29.91R
PHILLIPS       PTCLDY    71  64  78 S9        29.88S
TOMAHAWK       PTCLDY    69  62  79 S3        29.91S
MEDFORD        PTCLDY    69  64  83 S8        29.90F
MERRILL        PTCLDY    73  64  74 S7        29.92F
$$

WIZ029-030-035-036-043>047-060400-
CENTRAL WISCONSIN

CITY           SKY/WX    TMP DP  RH WIND       PRES   REMARKS
WAUSAU         PTCLDY    74  63  68 S9        29.91F
MOSINEE        CLEAR     72  64  78 S8        29.94F
MARSHFIELD     PTCLDY    72  62  71 S8        29.93S
STEVENS POINT  CLEAR     71  62  73 S7        29.94S
WAUPACA        CLEAR     72  65  79 S3        29.95S
WAUTOMA        CLEAR     73  66  78 CALM      29.96S
WISC RAPIDS    PTCLDY    74  62  66 S7        29.94F
CAMP DOUGLAS   PTCLDY    73  71  94 SE3       29.92F
$$

WIZ011>013-019>022-031-037>040-048>050-060400-
NORTHEAST WISCONSIN

CITY           SKY/WX    TMP DP  RH WIND       PRES   REMARKS
ANTIGO         CLEAR     66  63  87 S7        29.95S
SHAWANO        CLEAR     75  64  67 S5        29.94S
OCONTO         CLEAR     71  64  79 S6        29.93F
STURGEON BAY   CLEAR     66  57  72 S12       29.97F
GREEN BAY      CLEAR     71  62  73 S9        29.95F
MANITOWOC      CLEAR     66  60  81 MISG      29.99S
APPLETON       PTCLDY    73  61  64 S8        29.96F
CLINTONVILLE   CLEAR     72  63  73 S6        29.93F
OSHKOSH        CLEAR     67  62  84 S6        29.96F
$$

WIZ032>034-041-042-053>061-060400-
SOUTHWEST WISCONSIN

CITY           SKY/WX    TMP DP  RH WIND       PRES   REMARKS
LA CROSSE      PTCLDY    77  65  66 S12       29.87F
SPARTA         PTCLDY    74  62  65 S8        29.91F
VIROQUA        PTCLDY    71  64  80 S8        29.94F
BOSCOBEL       CLEAR     75  65  70 VRB6      29.93F
PRAIRIE DU CHI CLEAR     74  63  68 SE5       29.92S
PLATTEVILLE    CLEAR     70  66  87 SE9       29.97F
$$

WIZ056-057-062-063-064-067-068-060400-
SOUTH CENTRAL WISCONSIN

CITY           SKY/WX    TMP DP  RH WIND       PRES   REMARKS
REEDSBURG      CLEAR     71  64  79 SW5       29.96R
BARABOO/DELLS  CLEAR     71  63  76 S7        29.96R
LONE ROCK      CLEAR     69  64  84 NE5       29.96F
MINERAL POINT  CLEAR     72  64  78 SE8       29.97F
MADISON        MOCLDY    75  64  68 S8        29.98S
MIDDLETON      CLEAR     74  64  69 S8        29.98F
WATERTOWN      CLEAR     68  66  94 CALM      29.99S
MONROE         CLEAR     70  63  78 S7        30.00S
JANESVILLE     CLEAR     72  61  68 S3        29.99F
$$

WIZ051-052-058>065-066-070>072-060400-
SOUTHEAST WISCONSIN

CITY           SKY/WX    TMP DP  RH WIND       PRES   REMARKS
MILWAUKEE      PTCLDY    71  59  65 S6        30.01R
WAUKESHA       CLEAR     68  59  73 S6        30.02R
MILWAUKEE/TIMM CLEAR     70  55  60 S6        30.01S
RACINE         CLEAR     71  59  65 S10       30.03R
BURLINGTON     CLEAR     62  60  92 CALM      30.01S
KENOSHA        CLEAR     70  60  70 S7        30.01S
FOND DU LAC    CLEAR     70  63  78 S9        29.97S
SHEBOYGAN      CLEAR     68  59  73 S8        30.00R
WEST BEND      CLEAR     68  59  73 CALM      30.01R
JUNEAU         CLEAR     70  63  78 S9        30.00F
$$

LSZ147-162-060400-
LAKE SUPERIOR

STATION/POSITION TIME  TEMP    WIND        PRES    WAVE
                       AIR SEA DIR/SP/G            HT/PER
                 (UTC) (F)     (DEG/KT/KT) (MB)    (FT/S)
W MID LAKE BUOY  0250   53 39  190/  8/ 10 1009.2R   0
DEVILS ISLAND    0300   74     180/  8/ 11 1007.6R
SAXON HARBOR     0200   79     190/  6/ 13 1007.8
$$

LMZ867-665-643>646-060400-
LAKE MICHIGAN

STATION/POSITION TIME  TEMP    WIND        PRES    WAVE
                       AIR SEA DIR/SP/G            HT/PER
                 (UTC) (F)     (DEG/KT/KT) (MB)    (FT/S)
CHAMBERS ISLAND  0200   71     160/  7/ 13 1014.2S
S GREEN BAY BUOY 0300   72 70  170/ 16/ 21 1015.2
N MID LAKE BUOY  0250   56 47  200/ 12/ 14 1015.2R   2/ 4
NORTHPORT PIER   0200   67     160/  6/ 11 1014.9R
SISTER BAY       0114   70     160/ 15/ 22   N/A
ALGOMA LAKESHORE 0211          210/  9/ 11   N/A
KEWAUNEE LAKESHO 0200   64     170/  9/ 11 1014.6F
SHEBOYGAN LAKESH 0300   67     190/ 15/ 16 1015.9R
PORT WASHINGTON  0200   65     190/  6/  9 1016.3F
ATWATER BUOY     0300   64 60  170/  6/  8 1017.1R
MILWAUKEE LAKESH 0300   65     170/  8/  8   N/A
KENOSHA   LAKESH 0300   69     180/ 10/ 14 1015.9R
$$

TC  - TEMPERATURE IN CELSIUS
VSB - VISIBILITY IN STATUTE MILES
WCI - WIND CHILL INDEX
HX  - HEAT INDEX



USA.gov is the U.S. government's official web portal to all federal, state and local government web resources and services.